Flag for U.S.A. Weather past 2 weeks in Sandpoint, Idaho, U.S.A.

Now
45 °F

Clear.


Feels Like: 37 °F
Forecast: 43 / 62 °F
Wind: 17 mph from Northeast

Location: Sandpoint Airport

Current Time: Oct 25, 2014 at 6:07:42 AM

Latest Report: Oct 25, 2014 at 5:35 AM


Visibility: 10 mi

Pressure: 29.84 "Hg

Humidity: 81%

Dew point: 39 °F

Location of SandpointLocation

Historic Weather in Sandpoint — Graph

°F

Sandpoint temperature yesterday

Maximum temperature yesterday: 54 °F (at 12:15 PM)
Minimum temperature yesterday: 43 °F (at 3:55 AM)
Average temperature yesterday: 47 °F

Past Weeks' High & Low Weather Summary

 TemperatureHumidityPressure
High72 °F (Oct 10, 3:15 PM)100% (Oct 10, 4:15 AM)30.17 "Hg (Oct 10, 4:15 AM)
Low32 °F (Oct 17, 1:55 AM)34% (Oct 12, 2:55 PM)29.57 "Hg (Oct 15, 2:55 AM)
Average49 °F85%29.93 "Hg
* Reported Oct 10 4:15 AM — Oct 25 4:55 AM, Sandpoint, Weather by CustomWeather, © 2014

Note: Actual official high and low records may vary slightly from our data, if they occured in-between our weather recording intervals... More about our weather records

Advertising

Sandpoint weather history for previous 24 hours

 ConditionsComfort  
Time TempWeatherWind HumidityBarometerVisibility
4:55 AM
Oct 25
45 °FClear.14 mph81%29.85 "Hg10 mi
4:35 AM45 °FClear.13 mph76%29.86 "Hg10 mi
4:15 AM45 °FClear.16 mph76%29.86 "Hg10 mi
3:55 AM45 °FClear.12 mph81%29.89 "Hg10 mi
3:35 AM45 °FClear.12 mph76%29.89 "Hg10 mi
3:15 AM45 °FClear.15 mph76%29.90 "Hg10 mi
2:55 AM45 °FClear.15 mph76%29.91 "Hg10 mi
2:35 AM45 °FClear.14 mph76%29.92 "Hg10 mi
2:15 AM46 °FClear.13 mph71%29.94 "Hg10 mi
1:55 AM46 °FClear.9 mph71%29.94 "Hg10 mi
1:35 AM45 °FPassing clouds.13 mph81%29.95 "Hg10 mi
1:15 AM45 °FPassing clouds.13 mph81%29.96 "Hg10 mi
12:55 AM45 °FOvercast.15 mph87%29.97 "Hg10 mi
12:15 AM46 °FMostly cloudy.10 mph76%29.98 "Hg10 mi
11:55 PM
Oct 24
46 °FLight rain. Mostly cloudy.12 mph76%30.00 "Hg10 mi
11:15 PM46 °FMostly cloudy.13 mph71%30.01 "Hg10 mi
10:55 PM46 °FMostly cloudy.9 mph71%30.01 "Hg10 mi
10:35 PM46 °FOvercast.10 mph76%30.01 "Hg10 mi
10:15 PM46 °FOvercast.13 mph76%30.01 "Hg10 mi
9:55 PM46 °FOvercast.13 mph76%30.02 "Hg10 mi
9:35 PM45 °FMostly cloudy.No wind93%30.02 "Hg10 mi
9:15 PM46 °FOvercast.10 mph76%30.02 "Hg10 mi
8:55 PM46 °FOvercast.13 mph82%30.02 "Hg10 mi
8:15 PM46 °FPassing clouds.12 mph82%30.03 "Hg10 mi
7:55 PM46 °FPassing clouds.9 mph82%30.04 "Hg10 mi
7:35 PM46 °FPassing clouds.9 mph82%30.04 "Hg10 mi
7:15 PM46 °FClear.6 mph82%30.04 "Hg10 mi
6:55 PM48 °FClear.8 mph76%30.04 "Hg10 mi
6:35 PM48 °FSunny.7 mph76%30.05 "Hg10 mi
6:15 PM48 °FSunny.7 mph76%30.05 "Hg10 mi
5:55 PM48 °FScattered clouds.6 mph76%30.06 "Hg10 mi
5:35 PM50 °FScattered clouds.5 mph71%30.07 "Hg10 mi
5:15 PM50 °FPartly sunny.5 mph76%30.07 "Hg10 mi
4:55 PM50 °FOvercast.5 mph71%30.08 "Hg10 mi
4:15 PM52 °FPartly sunny.3 mph67%30.08 "Hg10 mi
3:55 PM52 °FPartly sunny.3 mph62%30.08 "Hg10 mi
3:35 PM52 °FMore clouds than sun.No wind67%30.08 "Hg10 mi
3:15 PM52 °FOvercast.5 mph67%30.08 "Hg10 mi
2:55 PM52 °FOvercast.5 mph62%30.08 "Hg10 mi
2:15 PM52 °FOvercast.No wind67%30.09 "Hg10 mi
1:55 PM52 °FOvercast.No wind58%30.09 "Hg10 mi
1:35 PM52 °FOvercast.No wind62%30.10 "Hg10 mi
1:15 PM52 °FOvercast.No wind67%30.10 "Hg10 mi
12:55 PM52 °FMore clouds than sun.No wind67%30.10 "Hg10 mi
12:35 PM52 °FMostly cloudy.5 mph67%30.11 "Hg10 mi
12:15 PM54 °FScattered clouds.6 mph63%30.11 "Hg10 mi
11:55 AM52 °FSunny.3 mph67%30.11 "Hg10 mi
11:15 AM50 °FSunny.No wind71%30.12 "Hg10 mi
10:55 AM50 °FSunny.No wind71%30.12 "Hg10 mi
10:35 AM48 °FSunny.3 mph76%30.12 "Hg10 mi
10:15 AM48 °FSunny.3 mph82%30.11 "Hg10 mi
9:55 AM46 °FSunny.No wind87%30.12 "Hg10 mi
9:35 AM46 °FSunny.No wind87%30.11 "Hg10 mi
9:15 AM45 °FSunny.No wind93%30.11 "Hg10 mi
8:55 AM45 °FScattered clouds.No wind93%30.10 "Hg10 mi
8:35 AM43 °FPartly sunny.3 mph100%30.10 "Hg10 mi
8:15 AM43 °FPassing clouds.3 mph100%30.10 "Hg10 mi
7:55 AM43 °FPartly cloudy.3 mph100%30.08 "Hg10 mi
7:15 AM43 °FMostly cloudy.3 mph93%30.07 "Hg10 mi
6:55 AM43 °FOvercast.3 mph93%30.07 "Hg10 mi
6:15 AM43 °FOvercast.5 mph100%30.05 "Hg10 mi
Weather by CustomWeather, © 2014

See weather overviewHow to use our weather pages